Weather History for KVAY - November, 2013

Change the Weather History Date:

Friday, November 29, 2013

  Actual Average (KWRI) Record (KWRI)
Temperature  
Mean Temperature 31 °F -  
Max Temperature 39 °F 50 °F 68 °F (1998)
Min Temperature 23 °F 31 °F 19 °F (2014)
Degree Days  
Heating Degree Days 34    
Moisture  
Dew Point 19 °F    
Average Humidity 65    
Maximum Humidity 91    
Minimum Humidity 38    
Precipitation  
Precipitation 0.00 in - - ()
Sea Level Pressure  
Sea Level Pressure 30.61 in    
Wind  
Wind Speed 2 mph (NNW)    
Max Wind Speed 9 mph    
Max Gust Speed -    
Visibility 10 miles    
Events      
Averages and records for this station are not official NWS values.
T = Trace of Precipitation, MM = Missing Value Source: NWS Daily Summary

Daily Weather History Graph

Daily Weather History Graph

Search for Another Location

Airport or City:

Trip Planner

Search our weather history database for the weather conditions in past years. The results will help you decide how hot, cold, wet, or windy it might be!

Date:

Astronomy

Nov. 29, 2013 Rise Set
Actual Time 7:00 AM EST 4:35 PM EST
Civil Twilight 6:30 AM EST 5:05 PM EST
Nautical Twilight 5:56 AM EST 5:38 PM EST
Astronomical Twilight 5:24 AM EST 6:11 PM EST
Moon 3:03 AM EST (11/29) 2:18 PM EST (11/29)
Length of Visible Light 10h 35m
Length of Day
9h 35m
Waning Crescent, 14% of the Moon is Illuminated
Nov 29
Waning Crescent
Dec 2
New
Dec 9
First Quarter
Dec 17
Full
Dec 25
Last Quarter

Hourly Weather History & Observations

Time (EST) Temp. Windchill Dew Point Humidity Pressure Visibility Wind Dir Wind Speed Gust Speed Precip Events Conditions
12:54 AM 30.0 °F - 23.0 °F 75% 30.50 in 10.0 mi Calm Calm - N/A   Overcast
1:54 AM 30.0 °F - 21.9 °F 72% 30.50 in 10.0 mi Calm Calm - N/A   Overcast
2:54 AM 28.9 °F - 23.0 °F 78% 30.50 in 10.0 mi Calm Calm - N/A   Overcast
3:54 AM 27.0 °F - 21.9 °F 81% 30.50 in 10.0 mi Calm Calm - N/A   Partly Cloudy
4:54 AM 25.0 °F - 19.9 °F 81% 30.51 in 10.0 mi Calm Calm - N/A   Clear
5:54 AM 24.1 °F - 19.9 °F 84% 30.53 in 9.0 mi Calm Calm - N/A   Mostly Cloudy
6:54 AM 23.0 °F - 19.0 °F 85% 30.55 in 9.0 mi Calm Calm - N/A   Clear
7:54 AM 24.1 °F - 21.9 °F 91% 30.57 in 7.0 mi Calm Calm - N/A   Partly Cloudy
8:54 AM 30.9 °F - 26.1 °F 82% 30.59 in 9.0 mi Calm Calm - N/A   Clear
9:54 AM 35.1 °F 31.0 °F 18.0 °F 50% 30.60 in 10.0 mi NNE 4.6 mph - N/A   Clear
10:54 AM 37.9 °F 34.4 °F 18.0 °F 45% 30.61 in 10.0 mi North 4.6 mph - N/A   Clear
11:54 AM 39.0 °F 33.4 °F 17.1 °F 41% 30.59 in 10.0 mi NNW 8.1 mph - N/A   Clear
12:54 PM 39.9 °F 33.9 °F 18.0 °F 41% 30.59 in 10.0 mi North 9.2 mph - N/A   Clear
1:54 PM 39.9 °F 34.5 °F 18.0 °F 41% 30.58 in 10.0 mi NNW 8.1 mph - N/A   Clear
2:54 PM 39.9 °F 33.9 °F 16.0 °F 38% 30.59 in 10.0 mi WNW 9.2 mph - N/A   Clear
3:54 PM 37.9 °F 32.7 °F 18.0 °F 45% 30.62 in 10.0 mi NNW 6.9 mph - N/A   Clear
4:54 PM 34.0 °F 28.0 °F 18.0 °F 52% 30.65 in 10.0 mi North 6.9 mph - N/A   Clear
5:54 PM 32.0 °F 25.6 °F 19.9 °F 61% 30.66 in 10.0 mi North 6.9 mph - N/A   Clear
6:54 PM 30.0 °F 24.1 °F 19.0 °F 64% 30.69 in 10.0 mi North 5.8 mph - N/A   Clear
7:54 PM 28.9 °F 23.9 °F 18.0 °F 64% 30.70 in 10.0 mi North 4.6 mph - N/A   Clear
8:54 PM 28.9 °F - 17.1 °F 61% 30.72 in 10.0 mi Calm Calm - N/A   Clear
9:54 PM 26.1 °F - 18.0 °F 71% 30.73 in 10.0 mi Calm Calm - N/A   Clear
10:54 PM 25.0 °F - 17.1 °F 72% 30.74 in 10.0 mi Calm Calm - N/A   Clear
11:54 PM 24.1 °F 19.7 °F 17.1 °F 75% 30.74 in 10.0 mi North 3.5 mph - N/A   Clear